TimeCST,TemperatureF,Dew PointF,Humidity,Sea Level PressureIn,VisibilityMPH,Wind Direction,Wind SpeedMPH,Gust SpeedMPH,PrecipitationIn,Events,Conditions,WindDirDegrees,DateUTC
12:55 AM,17.1,12.0,81,30.04,8.0,SW,4.6,-,N/A,,Clear,220,2013-02-24 06:55:00
1:55 AM,19.0,14.0,81,30.05,9.0,SW,4.6,-,N/A,,Clear,230,2013-02-24 07:55:00
2:55 AM,17.1,12.9,84,30.04,8.0,Calm,Calm,-,N/A,,Clear,0,2013-02-24 08:55:00
3:55 AM,17.1,14.0,88,30.04,7.0,Calm,Calm,-,N/A,,Clear,0,2013-02-24 09:55:00
4:55 AM,14.0,12.0,92,30.06,5.0,Calm,Calm,-,N/A,,Clear,0,2013-02-24 10:55:00
5:55 AM,12.9,10.9,92,30.08,5.0,South,5.8,-,N/A,,Clear,170,2013-02-24 11:55:00
6:55 AM,15.1,12.0,88,30.10,4.0,South,3.5,-,N/A,,Clear,190,2013-02-24 12:55:00
7:55 AM,14.0,12.0,92,30.12,4.0,South,4.6,-,N/A,,Clear,170,2013-02-24 13:55:00
8:55 AM,19.9,16.0,85,30.12,5.0,SE,3.5,-,N/A,,Clear,140,2013-02-24 14:55:00
9:55 AM,27.0,19.0,72,30.12,7.0,Calm,Calm,-,N/A,,Clear,0,2013-02-24 15:55:00
10:55 AM,30.9,21.0,67,30.12,10.0,ESE,3.5,-,N/A,,Clear,110,2013-02-24 16:55:00
11:55 AM,34.0,23.0,64,30.12,10.0,SE,5.8,-,N/A,,Clear,140,2013-02-24 17:55:00
12:55 PM,36.0,21.9,57,30.11,10.0,SSE,4.6,-,N/A,,Clear,160,2013-02-24 18:55:00
1:55 PM,36.0,21.9,57,30.09,10.0,SE,6.9,-,N/A,,Clear,140,2013-02-24 19:55:00
2:55 PM,37.0,23.0,57,30.07,10.0,SSE,5.8,-,N/A,,Clear,150,2013-02-24 20:55:00
3:55 PM,37.9,23.0,55,30.05,10.0,ESE,6.9,-,N/A,,Clear,110,2013-02-24 21:55:00
4:55 PM,36.0,23.0,59,30.06,10.0,ESE,6.9,-,N/A,,Clear,110,2013-02-24 22:55:00
5:55 PM,35.1,21.9,59,30.06,10.0,East,3.5,-,N/A,,Clear,100,2013-02-24 23:55:00
6:55 PM,33.1,21.9,64,30.08,10.0,ENE,4.6,-,N/A,,Clear,70,2013-02-25 00:55:00
7:55 PM,30.0,21.0,69,30.09,10.0,ENE,4.6,-,N/A,,Clear,60,2013-02-25 01:55:00
8:55 PM,30.0,21.0,69,30.08,10.0,East,6.9,-,N/A,,Clear,80,2013-02-25 02:55:00
9:55 PM,28.9,19.9,69,30.09,10.0,ENE,4.6,-,N/A,,Clear,70,2013-02-25 03:55:00
10:55 PM,25.0,19.0,78,30.09,10.0,ENE,4.6,-,N/A,,Clear,60,2013-02-25 04:55:00
11:55 PM,26.1,19.0,75,30.10,10.0,ENE,5.8,-,N/A,,Scattered Clouds,60,2013-02-25 05:55:00